Details From SBEG - Eduardo Gomes
To SBFZ - Pinto Martins
Flight Number -
Tags decoded
Created
Modified
Stats Distance 1,291 nm / 2,390 km
Max Altitude 0 ft / 0 m
Waypoints 2
Social Downloads 2
Likes 0
Share VATSIM

Download

Looking for another format? Having issues loading an existing format? Contact us
Advertisement - Login to hide

Notes

Requested: SBEG MASDU1 SBFZ Unmatched points: MASDU1

Route

SBEG SBFZ

ID Type Via Altitude Latitude Longitude Leg Dist Tot Dist Heading (true) Name
O SBEG APT - 0 ft / 0 m -3.03861˚ -60.04972˚ - 0 nm - Eduardo Gomes
O SBFZ APT - 0 ft / 0 m -3.77628˚ -38.53256˚ 1290 nm 1290 nm 93° / 91° Pinto Martins

Altitude Profile

Advertisement - Login to hide

Weather


0- 5 10 15 20 25 30 35+ Temperature / ° C

Clouds and Precipitation
Forecast for 2018-05-20 12:00 UTC. Updated an hour ago

Ground ~20,000 ft ~40,000 ft Winds

SBEG

Details ICAO SBEG (MAO)
Name Eduardo Gomes
Region Brazil
Timezone America/Manaus (UTC-4.0)
Stats Elevation 264 ft / 80 m (AMSL)
Location -3.038611° -60.049723°
Runways 1
Magnetic Variation 15.812° W

METAR

SBEG 201000Z 34002KT 9999 FEW010 SCT080 24/23 Q1011

Decode

TAF

TAF SBEG 200400Z 2006/2106 02002KT CAVOK TN24/2007Z TX30/2017Z BECMG 2008/2010 00000KT 9999 FEW010 BECMG 2013/2015 08005KT SCT020 FEW025TCU PROB30 TEMPO 2015/2018 5000 TSRA SCT025 FEW030CB BECMG 2016/2018 SCT015 BECMG 2022/2024 FEW015 RMK PCQ

Decode

Departure Runways

ID Width Length Bearing (true) Bearing (mag) Surface Threshold Offset Overrun Length
10 148 ft / 45 m 8,867 ft / 2,703 m 90.13° 105.94° Asphalt 0 ft / 0 m 215 ft / 66 m
28 148 ft / 45 m 8,867 ft / 2,703 m 270.13° 285.94° Asphalt 0 ft / 0 m 250 ft / 76 m

SBFZ

Details ICAO SBFZ (FOR)
Name Pinto Martins
Region Brazil
Timezone America/Fortaleza (UTC-3.0)
Stats Elevation 82 ft / 25 m (AMSL)
Location -3.776283° -38.532556°
Runways 1
Magnetic Variation 21.110° W

METAR

SBFZ 201000Z 16001KT CAVOK 27/24 Q1012

Decode

TAF

TAF SBFZ 200230Z 2006/2106 15007KT 9000 SCT015 TN24/2008Z TX31/2015Z BECMG 2011/2012 10012KT SCT017 FEW025TCU BECMG 2014/2015 SCT025 BECMG 2018/2020 09008KT BECMG 2102/2104 15007KT RMK PEI

Decode

Destination Runways

ID Width Length Bearing (true) Bearing (mag) Surface Threshold Offset Overrun Length
13 148 ft / 45 m 8,360 ft / 2,548 m 104.88° 125.99° Asphalt 0 ft / 0 m 195 ft / 59 m
31 148 ft / 45 m 8,360 ft / 2,548 m 284.88° 305.99° Asphalt 0 ft / 0 m 125 ft / 38 m

Approach Navaids

Runway Type Ident Frequency Range Bearing (true) Bearing (mag) Slope Elevation
13 Localiser IFZ 109.30 MHz 18 nm / 33 km 105.09° 126.20° - 82 ft / 25 m (AMSL)
13 Glidescope IFZ 109.30 MHz 10 nm / 19 km 104.88° 125.99° 3.00° 82 ft / 25 m (AMSL)
13 DME IFZ 109.30 MHz 18 nm / 33 km - - - 82 ft / 25 m (AMSL)

Popular Alternatives